SQ2CDE-4 Weather Reports


time (UTC)temp
C
wind
direction
speed
KPH
gust
KPH
rain 1hr
cm
rain 24hr
cm
rain mn
cm
humidity
%
barometer
mb
20260504081821 20 280 12.9 0.0 0.00 0.00 0.00 49 1009.0
20260504080817 20 280 12.9 0.0 0.00 0.00 0.00 49 1009.0
20260504050722 13 160 3.2 0.0 0.00 0.00 0.00 67 1008.0
20260504045719 12 210 3.2 0.0 0.00 0.00 0.00 71 1008.0
20260504044717 12 210 3.2 0.0 0.00 0.00 0.00 71 1008.0
20260504043714 12 210 3.2 0.0 0.00 0.00 0.00 71 1008.0
20260504042711 12 210 6.4 0.0 0.00 0.00 0.00 67 1008.0
20260504041708 12 210 6.4 0.0 0.00 0.00 0.00 67 1008.0
20260504040705 12 210 6.4 0.0 0.00 0.00 0.00 67 1008.0
20260504035702 10 210 3.2 0.0 0.00 0.00 0.00 71 1008.0
20260504034659 10 210 3.2 0.0 0.00 0.00 0.00 71 1008.0
20260504033656 10 210 3.2 0.0 0.00 0.00 0.00 71 1008.0
20260504032653 8 230 6.4 0.0 0.00 0.00 0.00 76 1008.0
20260504031649 8 230 6.4 0.0 0.00 0.00 0.00 76 1008.0
20260504030646 8 230 6.4 0.0 0.00 0.00 0.00 76 1008.0
20260504025643 8 0 0.0 0.0 0.00 0.00 0.00 76 1008.0
20260504024640 8 0 0.0 0.0 0.00 0.00 0.00 76 1008.0
20260504023638 8 0 0.0 0.0 0.00 0.00 0.00 76 1008.0
20260504022635 8 190 3.2 0.0 0.00 0.00 0.00 81 1008.0
20260504021632 8 190 3.2 0.0 0.00 0.00 0.00 81 1008.0
20260504020629 8 190 3.2 0.0 0.00 0.00 0.00 81 1008.0
20260504015627 8 0 0.0 0.0 0.00 0.00 0.00 81 1009.0
20260504014623 8 0 0.0 0.0 0.00 0.00 0.00 81 1009.0
20260504012617 8 0 0.0 0.0 0.00 0.00 0.00 81 1009.0
20260504011614 8 0 0.0 0.0 0.00 0.00 0.00 81 1009.0
20260504005609 10 180 3.2 0.0 0.00 0.00 0.00 76 1009.0
20260504004606 10 180 3.2 0.0 0.00 0.00 0.00 76 1009.0
20260504002601 10 0 0.0 0.0 0.00 0.00 0.00 82 1009.0
20260504001558 10 0 0.0 0.0 0.00 0.00 0.00 82 1009.0
20260503235551 11 220 3.2 0.0 0.00 0.00 0.00 76 1010.0
20260503234548 11 220 3.2 0.0 0.00 0.00 0.00 76 1010.0
20260503232541 12 0 0.0 0.0 0.00 0.00 0.00 71 1010.0
20260503231538 12 0 0.0 0.0 0.00 0.00 0.00 71 1010.0
20260503225531 12 0 0.0 0.0 0.00 0.00 0.00 67 1010.0
20260503224528 12 0 0.0 0.0 0.00 0.00 0.00 67 1010.0
20260503222522 12 260 3.2 0.0 0.00 0.00 0.00 67 1010.0
20260503221518 12 260 3.2 0.0 0.00 0.00 0.00 67 1010.0
20260503215512 12 270 3.2 0.0 0.00 0.00 0.00 67 1010.0
20260503214509 12 270 3.2 0.0 0.00 0.00 0.00 67 1010.0
20260503212502 12 250 3.2 0.0 0.00 0.00 0.00 67 1011.0
20260503211459 12 250 3.2 0.0 0.00 0.00 0.00 67 1011.0
20260503210455 13 0 0.0 0.0 0.00 0.00 0.00 63 1011.0
20260503205452 13 0 0.0 0.0 0.00 0.00 0.00 63 1011.0
20260503204449 13 0 0.0 0.0 0.00 0.00 0.00 63 1011.0
20260503203446 13 0 0.0 0.0 0.00 0.00 0.00 58 1011.0
20260503202444 13 0 0.0 0.0 0.00 0.00 0.00 58 1011.0
20260503201438 13 0 0.0 0.0 0.00 0.00 0.00 58 1011.0
20260503200434 15 0 0.0 0.0 0.00 0.00 0.00 55 1011.0
20260503195431 15 0 0.0 0.0 0.00 0.00 0.00 55 1011.0
20260503194428 15 0 0.0 0.0 0.00 0.00 0.00 55 1011.0
20260503193425 16 0 0.0 0.0 0.00 0.00 0.00 51 1011.0
20260503192421 16 0 0.0 0.0 0.00 0.00 0.00 51 1011.0
20260503191418 16 0 0.0 0.0 0.00 0.00 0.00 51 1011.0
20260503190414 17 0 0.0 0.0 0.00 0.00 0.00 48 1010.0
20260503185411 17 0 0.0 0.0 0.00 0.00 0.00 48 1010.0
20260503184408 17 0 0.0 0.0 0.00 0.00 0.00 48 1010.0
20260503183405 18 330 3.2 0.0 0.00 0.00 0.00 40 1010.0
20260503182402 18 330 3.2 0.0 0.00 0.00 0.00 40 1010.0
20260503181358 18 330 3.2 0.0 0.00 0.00 0.00 40 1010.0
20260503180355 20 350 6.4 0.0 0.00 0.00 0.00 37 1010.0
20260503175352 20 350 6.4 0.0 0.00 0.00 0.00 37 1010.0
20260503174348 20 350 6.4 0.0 0.00 0.00 0.00 37 1010.0
20260503173345 20 20 9.7 0.0 0.00 0.00 0.00 40 1010.0
20260503172342 20 20 9.7 0.0 0.00 0.00 0.00 40 1010.0
20260503171339 20 20 9.7 0.0 0.00 0.00 0.00 40 1010.0
20260503170336 21 350 9.7 0.0 0.00 0.00 0.00 38 1010.0
20260503150235 27 220 16.1 0.0 0.00 0.00 0.00 17 1010.0
20260503140150 27 220 12.9 0.0 0.00 0.00 0.00 20 1011.0
20260503131124 27 240 16.1 0.0 0.00 0.00 0.00 20 1011.0
20260503130120 27 210 16.1 0.0 0.00 0.00 0.00 17 1011.0